| time (UTC) | temp F | wind direction | speed MPH | gust MPH | rain 1hr in | rain 24hr in | rain mn in | humidity % | barometer mb |
| 20260902145928 | 73 | 291 | 3.0 | 8.0 | 0.00 | 0.00 | 0.00 | 60 | 1019.5 |
| 20260902144931 | 73 | 224 | 1.0 | 4.0 | 0.00 | 0.00 | 0.00 | 62 | 1019.4 |
| 20260902143929 | 72 | 132 | 0.0 | 3.0 | 0.00 | 0.00 | 0.00 | 64 | 1019.6 |
| 20260902142931 | 75 | 168 | 1.0 | 4.0 | 0.00 | 0.00 | 0.00 | 63 | 1019.5 |
| 20260902141929 | 74 | 143 | 1.0 | 7.0 | 0.00 | 0.00 | 0.00 | 59 | 1019.6 |
| 20260902140928 | 74 | 157 | 0.0 | 4.0 | 0.00 | 0.00 | 0.00 | 63 | 1019.7 |
| 20260902134929 | 74 | 96 | 1.0 | 6.0 | 0.00 | 0.00 | 0.00 | 63 | 1019.7 |
| 20260902131930 | 73 | 277 | 3.0 | 8.0 | 0.00 | 0.04 | 0.00 | 58 | 1020.0 |
| 20260902130929 | 74 | 21 | 1.0 | 7.0 | 0.00 | 0.04 | 0.00 | 59 | 1019.9 |
| 20260902124928 | 75 | 252 | 4.0 | 7.0 | 0.00 | 0.04 | 0.00 | 59 | 1019.8 |
| 20260902123931 | 73 | 112 | 3.0 | 8.0 | 0.00 | 0.04 | 0.00 | 61 | 1020.1 |
| 20260902122931 | 71 | 175 | 4.0 | 8.0 | 0.00 | 0.04 | 0.00 | 64 | 1020.1 |
| 20260902121930 | 71 | 204 | 2.0 | 11.0 | 0.00 | 0.04 | 0.00 | 67 | 1020.3 |
| 20260902115929 | 76 | 147 | 1.0 | 7.0 | 0.00 | 0.04 | 0.00 | 61 | 1020.2 |
| 20260902114932 | 75 | 156 | 0.0 | 6.0 | 0.00 | 0.04 | 0.00 | 64 | 1020.4 |
| 20260902111931 | 72 | 184 | 1.0 | 6.0 | 0.00 | 0.04 | 0.00 | 71 | 1020.4 |
| 20260902110931 | 71 | 157 | 1.0 | 6.0 | 0.00 | 0.04 | 0.00 | 76 | 1020.5 |
| 20260902105936 | 71 | 146 | 0.0 | 4.0 | 0.00 | 0.04 | 0.00 | 71 | 1020.7 |
| 20260902104929 | 72 | 208 | 2.0 | 7.0 | 0.00 | 0.04 | 0.00 | 70 | 1020.3 |
| 20260902103929 | 70 | 237 | 3.0 | 8.0 | 0.00 | 0.04 | 0.00 | 70 | 1020.3 |
| 20260902102929 | 72 | 150 | 1.0 | 7.0 | 0.00 | 0.04 | 0.00 | 74 | 1020.7 |
| 20260902101929 | 71 | 303 | 3.0 | 6.0 | 0.00 | 0.04 | 0.00 | 67 | 1020.5 |
| 20260902100931 | 69 | 31 | 1.0 | 4.0 | 0.00 | 0.04 | 0.00 | 72 | 1020.8 |
| 20260902095931 | 68 | 256 | 2.0 | 6.0 | 0.00 | 0.04 | 0.00 | 72 | 1020.7 |
| 20260902094932 | 69 | 164 | 0.0 | 4.0 | 0.00 | 0.04 | 0.00 | 76 | 1020.6 |
| 20260902092920 | 67 | 108 | 0.0 | 6.0 | 0.00 | 0.04 | 0.00 | 77 | 1020.7 |
| 20260902091917 | 68 | 129 | 0.0 | 6.0 | 0.00 | 0.04 | 0.00 | 77 | 1020.7 |
| 20260902085909 | 71 | 141 | 1.0 | 6.0 | 0.00 | 0.04 | 0.00 | 72 | 1020.6 |
| 20260902084907 | 70 | 165 | 1.0 | 4.0 | 0.00 | 0.04 | 0.00 | 75 | 1020.7 |
| 20260902081908 | 69 | 205 | 1.0 | 3.0 | 0.00 | 0.04 | 0.00 | 76 | 1020.6 |
| 20260902080919 | 69 | 151 | 0.0 | 4.0 | 0.00 | 0.04 | 0.00 | 79 | 1020.7 |
| 20260902073907 | 66 | 105 | 1.0 | 4.0 | 0.00 | 0.04 | 0.00 | 83 | 1020.5 |
| 20260902072907 | 66 | 175 | 1.0 | 4.0 | 0.00 | 0.04 | 0.00 | 84 | 1020.3 |
| 20260902071908 | 64 | 180 | 2.0 | 4.0 | 0.00 | 0.04 | 0.00 | 85 | 1020.4 |
| 20260902065908 | 64 | 189 | 1.0 | 6.0 | 0.00 | 0.04 | 0.00 | 86 | 1020.2 |
| 20260902064907 | 63 | 149 | 1.0 | 2.0 | 0.00 | 0.04 | 0.00 | 88 | 1020.1 |
| 20260902063910 | 61 | 121 | 0.0 | 3.0 | 0.00 | 0.04 | 0.00 | 91 | 1020.2 |
| 20260902051909 | 57 | 175 | 1.0 | 1.0 | 0.00 | 0.04 | 0.00 | 99 | 1019.6 |
| 20260902044907 | 54 | 139 | 0.0 | 1.0 | 0.00 | 0.04 | 0.00 | 99 | 1019.4 |
| 20260902043907 | 54 | 147 | 0.0 | 0.0 | 0.00 | 0.04 | 0.00 | 99 | 1019.2 |
| 20260902042908 | 54 | 129 | 0.0 | 1.0 | 0.00 | 0.04 | 0.00 | 99 | 1019.6 |
| 20260902041911 | 54 | 150 | 0.0 | 1.0 | 0.00 | 0.04 | 0.00 | 99 | 1019.3 |
| 20260902040907 | 54 | 133 | 0.0 | 0.0 | 0.00 | 0.04 | 0.00 | 99 | 1019.4 |
| 20260902035910 | 54 | 130 | 0.0 | 1.0 | 0.00 | 0.04 | 0.00 | 99 | 1019.2 |
| 20260902034908 | 53 | 140 | 0.0 | 0.0 | 0.00 | 0.04 | 0.00 | 99 | 1019.2 |
| 20260902033908 | 54 | 141 | 0.0 | 0.0 | 0.00 | 0.04 | 0.00 | 99 | 1019.2 |
| 20260902032908 | 54 | 139 | 0.0 | 0.0 | 0.00 | 0.04 | 0.00 | 99 | 1019.5 |
| 20260902024908 | 54 | 143 | 0.0 | 0.0 | 0.00 | 0.04 | 0.00 | 99 | 1019.3 |
| 20260902023907 | 54 | 143 | 0.0 | 0.0 | 0.00 | 0.04 | 0.00 | 99 | 1019.5 |
| 20260902022908 | 54 | 137 | 0.0 | 0.0 | 0.00 | 0.04 | 0.00 | 99 | 1019.4 |
| 20260902021907 | 54 | 132 | 0.0 | 2.0 | 0.00 | 0.04 | 0.00 | 99 | 1019.5 |
| 20260902015909 | 53 | 138 | 0.0 | 1.0 | 0.00 | 0.04 | 0.00 | 99 | 1019.3 |
| 20260902014907 | 52 | 137 | 0.0 | 1.0 | 0.00 | 0.04 | 0.00 | 99 | 1019.3 |
| 20260902012908 | 52 | 137 | 0.0 | 0.0 | 0.00 | 0.05 | 0.00 | 99 | 1019.2 |
| 20260902011910 | 52 | 131 | 0.0 | 0.0 | 0.00 | 0.05 | 0.00 | 99 | 1019.3 |
| 20260902004908 | 51 | 132 | 0.0 | 1.0 | 0.00 | 0.05 | 0.00 | 99 | 1019.4 |
| 20260902003910 | 51 | 141 | 0.0 | 0.0 | 0.00 | 0.05 | 0.00 | 99 | 1019.5 |
| 20260902002909 | 51 | 146 | 0.0 | 0.0 | 0.00 | 0.05 | 0.00 | 99 | 1019.2 |
| 20260901234907 | 52 | 146 | 0.0 | 0.0 | 0.00 | 0.05 | 0.00 | 99 | 1019.2 |
| 20260901233907 | 52 | 139 | 0.0 | 0.0 | 0.00 | 0.05 | 0.00 | 99 | 1019.2 |
| 20260901231912 | 53 | 142 | 0.0 | 0.0 | 0.00 | 0.05 | 0.00 | 99 | 1019.0 |
| 20260901230855 | 53 | 142 | 0.0 | 0.0 | 0.00 | 0.05 | 0.00 | 99 | 1019.2 |
| 20260901225856 | 54 | 145 | 0.0 | 0.0 | 0.00 | 0.05 | 0.00 | 99 | 1019.2 |
| 20260901224848 | 54 | 142 | 0.0 | 0.0 | 0.00 | 0.05 | 0.00 | 98 | 1019.2 |
| 20260901223842 | 54 | 142 | 0.0 | 0.0 | 0.00 | 0.05 | 0.00 | 98 | 1019.1 |
| 20260901221855 | 55 | 147 | 0.0 | 0.0 | 0.00 | 0.05 | 0.00 | 97 | 1019.1 |
| 20260901220842 | 55 | 145 | 0.0 | 0.0 | 0.00 | 0.05 | 0.00 | 97 | 1019.1 |
| 20260901215842 | 56 | 145 | 0.0 | 0.0 | 0.00 | 0.05 | 0.05 | 96 | 1019.2 |
| 20260901214846 | 56 | 138 | 0.0 | 0.0 | 0.00 | 0.05 | 0.05 | 95 | 1018.9 |
| 20260901212842 | 57 | 134 | 0.0 | 1.0 | 0.00 | 0.05 | 0.05 | 94 | 1019.1 |
| 20260901211842 | 57 | 131 | 0.0 | 1.0 | 0.00 | 0.05 | 0.05 | 94 | 1019.2 |
| 20260901210848 | 57 | 135 | 0.0 | 1.0 | 0.00 | 0.05 | 0.05 | 95 | 1019.3 |
| 20260901205842 | 57 | 143 | 0.0 | 1.0 | 0.00 | 0.05 | 0.05 | 95 | 1019.2 |
| 20260901204843 | 57 | 142 | 0.0 | 0.0 | 0.00 | 0.05 | 0.05 | 96 | 1019.3 |
| 20260901203844 | 57 | 137 | 0.0 | 0.0 | 0.00 | 0.05 | 0.05 | 96 | 1019.2 |
| 20260901201843 | 58 | 120 | 0.0 | 0.0 | 0.00 | 0.05 | 0.05 | 94 | 1018.9 |
| 20260901200842 | 58 | 132 | 0.0 | 1.0 | 0.00 | 0.05 | 0.05 | 94 | 1019.2 |
| 20260901195844 | 59 | 143 | 0.0 | 0.0 | 0.00 | 0.05 | 0.05 | 94 | 1019.3 |
| 20260901194844 | 59 | 143 | 0.0 | 2.0 | 0.00 | 0.05 | 0.05 | 94 | 1019.0 |
| 20260901193843 | 59 | 139 | 0.0 | 0.0 | 0.00 | 0.05 | 0.05 | 95 | 1019.2 |
| 20260901192842 | 59 | 142 | 0.0 | 0.0 | 0.00 | 0.05 | 0.05 | 96 | 1019.3 |
| 20260901191843 | 58 | 141 | 0.0 | 1.0 | 0.00 | 0.05 | 0.05 | 96 | 1019.3 |
| 20260901190845 | 58 | 142 | 0.0 | 0.0 | 0.00 | 0.05 | 0.05 | 96 | 1019.4 |
| 20260901185843 | 58 | 142 | 0.0 | 0.0 | 0.00 | 0.05 | 0.05 | 96 | 1019.1 |
| 20260901184843 | 58 | 142 | 0.0 | 1.0 | 0.00 | 0.05 | 0.05 | 95 | 1018.9 |
| 20260901182843 | 59 | 143 | 0.0 | 0.0 | 0.00 | 0.05 | 0.05 | 94 | 1019.0 |
| 20260901180844 | 61 | 143 | 0.0 | 0.0 | 0.00 | 0.05 | 0.05 | 91 | 1018.7 |
| 20260901174843 | 63 | 146 | 0.0 | 0.0 | 0.00 | 0.05 | 0.05 | 85 | 1018.7 |
| 20260901173847 | 64 | 152 | 0.0 | 2.0 | 0.00 | 0.05 | 0.05 | 81 | 1018.6 |
| 20260901172845 | 64 | 140 | 0.0 | 1.0 | 0.00 | 0.05 | 0.05 | 79 | 1018.7 |
| 20260901171844 | 65 | 148 | 0.0 | 3.0 | 0.00 | 0.05 | 0.05 | 79 | 1018.2 |
| 20260901165849 | 65 | 130 | 0.0 | 4.0 | 0.00 | 0.05 | 0.05 | 80 | 1018.1 |
| 20260901164836 | 65 | 133 | 0.0 | 2.0 | 0.00 | 0.05 | 0.05 | 82 | 1018.2 |
| 20260901162834 | 66 | 189 | 3.0 | 9.0 | 0.00 | 0.05 | 0.05 | 77 | 1017.9 |
| 20260901161835 | 66 | 260 | 5.0 | 7.0 | 0.00 | 0.05 | 0.05 | 77 | 1018.0 |
| 20260901160838 | 66 | 220 | 0.0 | 3.0 | 0.00 | 0.05 | 0.05 | 80 | 1017.8 |
| 20260901154835 | 69 | 190 | 2.0 | 4.0 | 0.00 | 0.05 | 0.05 | 75 | 1017.9 |
| 20260901153836 | 71 | 150 | 2.0 | 3.0 | 0.00 | 0.05 | 0.05 | 71 | 1017.7 |
| 20260901152835 | 67 | 221 | 1.0 | 8.0 | 0.00 | 0.05 | 0.05 | 79 | 1017.7 |
| 20260901150835 | 66 | 213 | 5.0 | 7.0 | 0.00 | 0.05 | 0.05 | 78 | 1017.9 |